LEGION 3

Last updated on Sat Oct 25 2025 00:02:33 GMT+0000 (Coordinated Universal Time)

1 60452U 24146A 25297.65555251 .00007579 00000+0 39463-3 0 9998 2 60452 45.0015 213.2510 0017874 298.5058 61.4021 15.16456924 66281
UTC large
Height (km)
Speed (km/s)
/
Latitude / Longitude
Inclination (degrees)
Orbital Period (minutes)
Azimuth
Elevation
Range (km)
Doppler Factor

Next 0 passes for location: London (51.5072 / 0.1276)

Sorry there are no passes over London.